EW0890 Weather Reports


time (UTC)temp
F
wind
direction
speed
knots
gust
knots
rain 1hr
in
rain 24hr
in
rain mn
in
humidity
%
barometer
mb
20260507025505 44 277 0.0 0.9 0.00 0.00 0.00 69 1016.3
20260507025003 44 277 0.0 1.7 0.00 0.00 0.00 69 1016.2
20260507024508 44 277 0.0 1.7 0.00 0.00 0.00 69 1016.3
20260507024004 44 273 0.0 0.9 0.00 0.00 0.00 68 1016.2
20260507023010 44 290 0.0 0.9 0.00 0.00 0.00 67 1016.2
20260507022006 45 288 0.0 0.9 0.00 0.00 0.00 66 1016.1
20260507021007 45 315 0.0 1.7 0.00 0.00 0.00 65 1016.0
20260507015511 47 311 0.9 2.6 0.00 0.00 0.00 62 1015.7
20260507014004 48 321 0.9 4.3 0.00 0.00 0.00 59 1015.6
20260507013503 48 305 0.9 4.3 0.00 0.00 0.00 58 1015.6
20260507013007 48 331 0.9 3.5 0.00 0.00 0.00 58 1015.5
20260507012503 49 307 0.9 3.5 0.00 0.00 0.00 57 1015.4
20260507011526 49 243 1.7 4.3 0.00 0.00 0.00 58 1015.3
20260507010506 50 353 0.9 2.6 0.00 0.00 0.00 56 1015.2
20260507010019 50 323 0.9 2.6 0.00 0.00 0.00 54 1015.2
20260507005507 51 276 0.0 2.6 0.00 0.00 0.00 53 1015.2
20260507005008 52 321 0.9 3.5 0.00 0.00 0.00 52 1015.1
20260507004522 52 310 0.9 3.5 0.00 0.00 0.00 53 1015.0
20260507003022 53 321 1.7 3.5 0.00 0.00 0.00 48 1014.9
20260507002504 54 348 0.9 4.3 0.00 0.00 0.00 48 1014.9
20260507002003 54 282 0.9 5.2 0.00 0.00 0.00 47 1014.8
20260507001508 54 280 0.9 5.2 0.00 0.00 0.00 46 1014.8
20260507001004 55 335 0.9 8.7 0.00 0.00 0.00 45 1014.8
20260507000503 55 330 1.7 8.7 0.00 0.00 0.00 45 1014.7
20260507000015 55 249 1.7 6.1 0.00 0.00 0.00 45 1014.8
20260506235504 55 326 0.9 6.1 0.00 0.00 0.00 44 1014.9
20260506235007 55 285 1.7 7.0 0.00 0.00 0.00 44 1014.9
20260506234008 55 316 1.7 7.8 0.00 0.00 0.00 44 1014.9
20260506233506 55 300 3.5 11.3 0.00 0.00 0.00 46 1014.9
20260506232011 56 288 8.7 11.3 0.00 0.00 0.00 40 1014.8
20260506231005 57 281 1.7 7.8 0.00 0.00 0.00 42 1014.9
20260506230503 57 320 0.9 9.6 0.00 0.00 0.00 41 1014.9
20260506230015 57 276 1.7 9.6 0.00 0.00 0.00 44 1014.8
20260506225503 57 321 1.7 13.0 0.00 0.00 0.00 44 1014.9
20260506225004 58 288 1.7 14.8 0.00 0.00 0.00 42 1014.8
20260506224007 58 319 3.5 10.4 0.00 0.00 0.00 43 1014.5
20260506223504 57 319 2.6 13.0 0.00 0.00 0.00 43 1014.5
20260506223021 57 282 9.6 13.0 0.00 0.00 0.00 40 1014.4
20260506222509 57 305 7.8 12.2 0.00 0.00 0.00 40 1014.4
20260506222009 58 292 5.2 12.2 0.00 0.00 0.00 44 1014.4
20260506221522 58 275 8.7 11.3 0.00 0.00 0.00 41 1014.3
20260506221010 58 351 2.6 7.0 0.00 0.00 0.00 44 1014.3
20260506220510 56 304 0.9 7.0 0.00 0.00 0.00 49 1014.4
20260506220026 56 265 3.5 6.1 0.00 0.00 0.00 45 1014.4
20260506215506 56 319 1.7 6.1 0.00 0.00 0.00 45 1014.4
20260506215002 56 323 1.7 11.3 0.00 0.00 0.00 44 1014.6
20260506214518 56 328 4.3 11.3 0.00 0.00 0.00 48 1014.5
20260506214007 56 331 3.5 9.6 0.00 0.00 0.00 48 1014.5
20260506213506 56 333 1.7 9.6 0.00 0.00 0.00 44 1014.6
20260506212507 56 305 8.7 13.0 0.00 0.00 0.00 43 1014.6
20260506212007 56 335 0.9 13.0 0.00 0.00 0.00 47 1014.6
20260506211521 56 318 7.0 13.0 0.00 0.00 0.00 42 1014.6
20260506211007 57 269 3.5 11.3 0.00 0.00 0.00 47 1014.6
20260506210510 57 291 5.2 8.7 0.00 0.00 0.00 40 1014.5
20260506210025 57 298 1.7 10.4 0.00 0.00 0.00 44 1014.6
20260506205511 57 334 1.7 10.4 0.00 0.00 0.00 46 1014.4
20260506205011 57 271 1.7 9.6 0.00 0.00 0.00 50 1014.5
20260506204526 57 350 0.9 14.8 0.00 0.00 0.00 46 1014.5
20260506204003 56 267 7.8 14.8 0.00 0.00 0.00 44 1014.6
20260506203502 56 271 7.0 15.6 0.00 0.00 0.00 43 1014.7
20260506203015 57 287 7.8 15.6 0.00 0.00 0.00 47 1014.8
20260506202506 57 317 6.1 15.6 0.00 0.00 0.00 47 1014.7
20260506202007 57 328 2.6 6.1 0.00 0.00 0.00 49 1014.8
20260506201525 57 320 1.7 17.4 0.00 0.01 0.00 46 1014.8
20260506201006 57 319 2.6 17.4 0.00 0.01 0.00 50 1014.9
20260506200509 57 263 9.6 15.6 0.00 0.01 0.00 46 1014.8
20260506200023 58 321 2.6 7.0 0.00 0.01 0.00 48 1014.9
20260506195509 57 319 0.9 9.6 0.00 0.01 0.00 50 1014.7
20260506195010 57 286 1.7 9.6 0.00 0.01 0.00 49 1014.7
20260506194524 57 330 1.7 12.2 0.00 0.02 0.00 53 1014.8
20260506194008 56 279 2.6 12.2 0.00 0.02 0.00 52 1014.8
20260506193510 56 274 2.6 7.0 0.00 0.03 0.00 53 1015.0
20260506193028 56 323 2.6 9.6 0.00 0.03 0.00 51 1014.9
20260506192506 56 323 2.6 12.2 0.00 0.04 0.00 49 1014.9
20260506192002 56 268 6.1 12.2 0.00 0.04 0.00 54 1014.9
20260506191510 56 302 4.3 12.2 0.00 0.04 0.00 52 1015.0
20260506191004 56 316 1.7 8.7 0.00 0.04 0.00 52 1015.0
20260506190505 56 343 3.5 11.3 0.00 0.04 0.00 54 1015.0
20260506190008 56 304 6.1 11.3 0.00 0.04 0.00 49 1015.0
20260506184002 56 293 4.3 8.7 0.00 0.04 0.00 51 1015.1
20260506183506 56 311 1.7 4.3 0.00 0.04 0.00 56 1014.9
20260506183011 56 295 2.6 5.2 0.00 0.04 0.00 52 1014.9
20260506182503 56 302 0.9 7.0 0.00 0.04 0.00 54 1014.9
20260506182004 55 331 1.7 7.0 0.00 0.04 0.00 54 1014.9
20260506181511 56 284 4.3 7.0 0.00 0.04 0.00 56 1015.0
20260506181004 56 65 1.7 13.0 0.00 0.04 0.00 57 1015.0
20260506180506 56 281 7.8 13.0 0.00 0.04 0.00 53 1015.0
20260506180012 55 290 7.0 14.8 0.00 0.04 0.00 56 1015.1
20260506175504 55 282 6.1 14.8 0.00 0.04 0.00 49 1015.1
20260506175002 56 290 5.2 9.6 0.00 0.04 0.00 56 1015.1
20260506174512 57 333 0.9 9.6 0.00 0.04 0.00 52 1015.2
20260506173504 56 316 2.6 4.3 0.00 0.04 0.00 49 1015.1
20260506172503 56 8 2.6 7.8 0.00 0.04 0.00 52 1015.2
20260506172003 56 304 2.6 6.1 0.00 0.04 0.00 57 1015.3
20260506171512 55 272 0.9 11.3 0.00 0.04 0.00 52 1015.3
20260506171003 56 281 3.5 11.3 0.00 0.04 0.00 51 1015.5
20260506170507 56 222 0.9 5.2 0.00 0.04 0.00 53 1015.5
20260506170011 55 269 0.9 5.2 0.00 0.04 0.00 53 1015.4
20260506165503 55 236 0.9 8.7 0.00 0.04 0.00 53 1015.4
20260506165005 54 255 2.6 8.7 0.00 0.04 0.00 57 1015.4
20260506164512 54 288 5.2 7.0 0.00 0.04 0.00 59 1015.3
20260506164007 55 278 4.3 7.0 0.00 0.04 0.00 53 1015.3
20260506162507 54 285 0.9 6.1 0.00 0.04 0.00 63 1015.1
20260506162006 54 290 1.7 6.1 0.00 0.04 0.00 61 1015.0
20260506161007 53 271 1.7 3.5 0.00 0.04 0.00 62 1014.8
20260506160506 53 281 0.9 3.5 0.00 0.04 0.00 64 1014.8
20260506160015 53 306 1.7 3.5 0.00 0.04 0.00 65 1014.8
20260506155504 52 54 0.9 2.6 0.00 0.04 0.00 69 1014.9
20260506155003 52 274 0.0 1.7 0.00 0.04 0.00 70 1014.8
20260506154514 52 70 0.0 2.6 0.00 0.04 0.00 66 1014.8
20260506154006 51 11 0.9 2.6 0.00 0.04 0.00 68 1014.7
20260506153507 51 18 0.0 3.5 0.00 0.04 0.00 69 1014.5
20260506153015 51 49 0.9 3.5 0.00 0.04 0.00 66 1014.5
20260506152506 51 11 0.9 3.5 0.00 0.04 0.00 69 1014.5
20260506151511 50 64 0.9 2.6 0.00 0.04 0.00 71 1014.4
20260506151003 50 69 0.9 3.5 0.00 0.04 0.00 71 1014.5
20260506150505 50 48 0.9 3.5 0.00 0.04 0.00 70 1014.4
20260506145504 49 9 1.7 4.3 0.00 0.04 0.00 72 1014.2
20260506145003 49 36 0.9 3.5 0.00 0.04 0.00 70 1014.2
20260506144532 49 49 1.7 3.5 0.00 0.04 0.00 70 1014.2
20260506144003 49 61 1.7 4.3 0.00 0.04 0.00 70 1014.2
20260506143504 48 51 0.9 4.3 0.00 0.04 0.00 72 1014.2
20260506143016 48 51 2.6 3.5 0.00 0.04 0.00 70 1014.3
20260506142505 48 46 1.7 3.5 0.00 0.04 0.00 70 1014.2
20260506142004 48 40 0.9 2.6 0.00 0.04 0.00 73 1014.3
20260506141516 48 34 0.0 1.7 0.00 0.04 0.00 76 1014.4
20260506140504 47 278 0.9 2.6 0.00 0.04 0.00 78 1014.4
20260506140015 47 297 0.0 0.9 0.00 0.04 0.00 79 1014.3
20260506135504 47 285 0.0 0.9 0.00 0.04 0.00 81 1014.2
20260506135003 46 279 0.0 0.9 0.00 0.04 0.00 81 1014.3
20260506134516 46 283 0.0 0.9 0.00 0.04 0.00 81 1014.3
20260506134006 46 283 0.0 0.9 0.00 0.04 0.00 82 1014.3
20260506133504 46 283 0.0 1.7 0.00 0.04 0.00 82 1014.5
20260506133014 46 283 0.0 2.6 0.00 0.04 0.00 83 1014.6
20260506132505 46 274 1.7 2.6 0.00 0.04 0.00 83 1014.5
20260506132005 45 271 0.0 0.9 0.00 0.04 0.00 82 1014.4
20260506131514 45 271 0.0 0.9 0.00 0.04 0.00 83 1014.4
20260506130507 45 263 0.0 0.9 0.00 0.04 0.00 83 1014.4
20260506124515 45 38 0.0 0.9 0.00 0.04 0.00 83 1013.7
20260506124004 45 231 0.0 0.9 0.00 0.04 0.00 84 1013.5
20260506123504 45 304 0.0 1.7 0.00 0.04 0.00 84 1013.4
20260506123024 45 303 0.0 1.7 0.00 0.04 0.00 84 1013.2
20260506122505 45 314 0.9 1.7 0.00 0.04 0.00 85 1013.3
20260506122007 44 328 0.0 1.7 0.00 0.04 0.00 87 1013.2
20260506121514 43 300 0.0 0.9 0.00 0.04 0.00 88 1013.1
20260506121004 42 266 0.0 0.9 0.00 0.04 0.00 89 1013.0
20260506120507 42 265 0.0 0.9 0.00 0.04 0.00 89 1012.9
20260506120023 41 265 0.0 0.9 0.00 0.04 0.00 89 1013.0
20260506115509 41 266 0.0 0.9 0.00 0.04 0.00 89 1012.8
20260506113507 40 265 0.0 0.9 0.00 0.04 0.00 90 1012.2
20260506113017 40 265 0.0 0.9 0.00 0.04 0.00 90 1012.2
20260506112508 39 266 0.0 0.9 0.00 0.04 0.00 91 1012.1
20260506112007 39 266 0.0 0.9 0.00 0.04 0.00 91 1011.9
20260506111522 39 266 0.0 0.9 0.00 0.05 0.00 91 1011.9
20260506111008 39 266 0.0 0.9 0.00 0.05 0.00 92 1012.1
20260506110509 39 266 0.0 0.9 0.00 0.05 0.00 92 1011.9
20260506110018 39 266 0.0 0.9 0.00 0.05 0.00 91 1011.9
20260506105507 39 346 0.0 0.0 0.00 0.05 0.00 91 1011.7
20260506105004 39 346 0.0 0.0 0.00 0.05 0.00 91 1011.5
20260506104526 39 346 0.0 0.0 0.00 0.05 0.00 90 1011.4
20260506104007 39 346 0.0 0.0 0.00 0.05 0.00 90 1011.5
20260506102005 40 346 0.0 0.9 0.00 0.05 0.00 89 1011.5
20260506101511 40 346 0.0 0.9 0.00 0.05 0.00 89 1011.6
20260506101004 40 346 0.0 0.9 0.00 0.05 0.00 89 1011.5
20260506100505 40 346 0.0 0.9 0.00 0.05 0.00 89 1011.4
20260506100019 40 346 0.0 0.9 0.00 0.05 0.00 88 1011.4
20260506095503 41 346 0.0 0.9 0.00 0.05 0.00 88 1011.3
20260506095003 41 319 0.0 0.9 0.00 0.05 0.00 87 1011.2
20260506094515 41 319 0.0 0.9 0.00 0.05 0.00 87 1011.1
20260506094004 41 319 0.0 0.0 0.00 0.05 0.00 87 1011.0
20260506093503 42 319 0.0 0.0 0.00 0.05 0.00 86 1010.8
20260506093006 42 319 0.0 0.0 0.00 0.05 0.00 85 1010.8
20260506092504 42 319 0.0 0.0 0.00 0.05 0.00 84 1010.6
20260506092004 43 319 0.0 0.9 0.00 0.05 0.00 84 1010.6
20260506091508 43 319 0.0 0.9 0.00 0.05 0.00 84 1011.0
20260506091007 43 319 0.0 0.9 0.00 0.05 0.00 83 1011.1
20260506090506 43 309 0.0 1.7 0.00 0.05 0.00 83 1011.2
20260506090015 43 309 0.9 1.7 0.00 0.05 0.00 83 1011.1
20260506085508 43 307 0.0 0.0 0.00 0.05 0.00 84 1011.2
20260506084515 43 307 0.0 0.9 0.00 0.05 0.00 84 1011.4
20260506084004 44 307 0.0 0.9 0.00 0.05 0.00 83 1011.3
20260506083504 44 307 0.0 0.9 0.00 0.05 0.00 82 1011.2
20260506082508 44 295 0.0 0.9 0.00 0.05 0.00 83 1010.9
20260506082004 44 287 0.0 0.9 0.00 0.05 0.00 83 1010.9
20260506081513 44 304 0.0 0.0 0.00 0.05 0.00 83 1010.8
20260506081003 44 304 0.0 0.0 0.00 0.05 0.00 83 1010.7
20260506080504 44 304 0.0 1.7 0.00 0.05 0.00 82 1010.6
20260506073507 46 309 0.0 0.9 0.00 0.05 0.00 79 1010.6
20260506073018 46 291 0.0 1.7 0.00 0.05 0.00 80 1010.6
20260506072509 46 313 0.0 2.6 0.00 0.05 0.00 79 1010.5
20260506072008 47 293 0.0 5.2 0.00 0.05 0.00 77 1010.5
20260506071519 47 289 1.7 5.2 0.00 0.05 0.00 79 1010.6
20260506071005 46 282 3.5 5.2 0.00 0.05 0.00 81 1010.7
20260506070504 46 281 3.5 4.3 0.00 0.05 0.00 81 1010.7
20260506061518 46 288 1.7 2.6 0.00 0.05 0.00 84 1010.5
20260506061007 46 282 0.9 1.7 0.00 0.05 0.00 86 1010.4
20260506060505 46 281 0.9 0.9 0.00 0.05 0.00 87 1010.5
20260506050510 49 3 0.0 0.0 0.00 0.05 0.00 85 1010.5
20260506045008 49 3 0.0 0.0 0.00 0.05 0.05 81 1010.2
20260506044007 49 3 0.0 0.9 0.00 0.05 0.05 77 1010.4
20260506043510 49 3 0.0 0.9 0.00 0.05 0.05 79 1010.2
20260506043010 49 3 0.0 0.9 0.00 0.05 0.05 78 1010.4
20260506042505 49 79 0.0 0.0 0.00 0.05 0.05 69 1010.3
20260506041514 49 79 0.0 2.6 0.00 0.06 0.05 77 1010.2
20260506041007 49 79 0.9 2.6 0.00 0.06 0.05 75 1010.4
20260506035508 49 221 0.0 3.5 0.00 0.06 0.05 77 1010.8
20260506035009 49 137 1.7 3.5 0.00 0.06 0.05 80 1010.4
20260506034522 49 127 1.7 3.5 0.00 0.06 0.05 83 1010.5
20260506034005 49 258 0.0 0.0 0.00 0.07 0.05 86 1010.7
20260506033507 49 281 0.0 0.9 0.00 0.08 0.05 86 1010.7
20260506033027 49 281 0.0 0.9 0.00 0.09 0.05 86 1010.7
20260506032506 49 290 0.0 0.0 0.00 0.09 0.05 84 1010.7
20260506032009 49 290 0.0 0.0 0.00 0.10 0.05 82 1010.9
20260506031006 49 290 0.0 0.0 0.00 0.14 0.05 83 1011.0
20260506030504 49 290 0.0 0.0 0.00 0.15 0.05 83 1011.0